Year,Month,Day,Hour,Minute,Value (Times are PST for temperature in C)
2021,04,22,11,11,10.80
2021,04,22,11,12,10.80
2021,04,22,11,13,10.80
2021,04,22,11,14,10.80
2021,04,22,11,15,10.80
2021,04,22,11,16,10.80
2021,04,22,11,17,10.80
2021,04,22,11,18,10.90
2021,04,22,11,19,10.90
2021,04,22,11,20,10.90
2021,04,22,11,21,10.90
2021,04,22,11,22,10.90
2021,04,22,11,23,11.00
2021,04,22,11,24,11.10
2021,04,22,11,25,11.20
2021,04,22,11,26,11.20
2021,04,22,11,27,11.10
2021,04,22,11,28,11.10
2021,04,22,11,29,11.10
2021,04,22,11,30,11.20
2021,04,22,11,31,11.20
2021,04,22,11,32,11.20
2021,04,22,11,33,11.20
2021,04,22,11,34,11.20
2021,04,22,11,35,11.20
2021,04,22,11,36,11.20
2021,04,22,11,37,11.30
2021,04,22,11,38,11.30
2021,04,22,11,39,11.30
2021,04,22,11,40,11.30
2021,04,22,11,41,11.30
2021,04,22,11,42,11.30
2021,04,22,11,43,11.40
2021,04,22,11,44,11.50
2021,04,22,11,45,11.60
2021,04,22,11,46,11.70
2021,04,22,11,47,11.80
2021,04,22,11,48,11.80
2021,04,22,11,49,11.80
2021,04,22,11,50,11.80
2021,04,22,11,51,11.80
2021,04,22,11,52,11.90
2021,04,22,11,53,11.90
2021,04,22,11,54,12.00
2021,04,22,11,55,12.00
2021,04,22,11,56,11.90
2021,04,22,11,57,12.00
2021,04,22,11,58,12.10
2021,04,22,11,59,12.10
2021,04,22,12,00,12.20
2021,04,22,12,01,12.10
2021,04,22,12,02,12.10
2021,04,22,12,03,12.10
2021,04,22,12,04,12.10
2021,04,22,12,05,12.20
2021,04,22,12,06,12.30
2021,04,22,12,07,12.40
2021,04,22,12,08,12.40
2021,04,22,12,09,12.50
2021,04,22,12,10,12.50
2021,04,22,12,11,12.50
2021,04,22,12,12,12.40
2021,04,22,12,13,12.30
2021,04,22,12,14,12.30
2021,04,22,12,15,12.20
2021,04,22,12,16,12.20
2021,04,22,12,17,12.10
2021,04,22,12,18,12.10
2021,04,22,12,19,12.10
2021,04,22,12,20,12.10
2021,04,22,12,21,12.10
2021,04,22,12,22,12.20
2021,04,22,12,23,12.30
2021,04,22,12,24,12.30
2021,04,22,12,25,12.30
2021,04,22,12,26,12.30
2021,04,22,12,27,12.30
2021,04,22,12,28,12.30
2021,04,22,12,29,12.40
2021,04,22,12,30,12.50
2021,04,22,12,31,12.60
2021,04,22,12,32,12.60
2021,04,22,12,33,12.70
2021,04,22,12,34,12.70
2021,04,22,12,35,12.60
2021,04,22,12,36,12.70
2021,04,22,12,37,12.70
2021,04,22,12,38,12.80
2021,04,22,12,39,12.80
2021,04,22,12,40,12.80
2021,04,22,12,41,12.70
2021,04,22,12,42,12.60
2021,04,22,12,43,12.60
2021,04,22,12,44,12.50
2021,04,22,12,45,12.60
2021,04,22,12,46,12.60
2021,04,22,12,47,12.70
2021,04,22,12,48,12.70
2021,04,22,12,49,12.70
2021,04,22,12,50,12.70
2021,04,22,12,51,12.60
2021,04,22,12,52,12.50
2021,04,22,12,53,12.40
2021,04,22,12,54,12.40
2021,04,22,12,55,12.30
2021,04,22,12,56,12.30
2021,04,22,12,57,12.40
2021,04,22,12,58,12.40
2021,04,22,12,59,12.50
2021,04,22,13,00,12.60
2021,04,22,13,01,12.70
2021,04,22,13,02,12.80
2021,04,22,13,03,12.80
2021,04,22,13,04,12.90
2021,04,22,13,05,12.90
2021,04,22,13,06,13.00
2021,04,22,13,07,13.00
2021,04,22,13,08,13.10
2021,04,22,13,09,13.10
2021,04,22,13,10,13.20
2021,04,22,13,11,13.20
2021,04,22,13,12,13.20
2021,04,22,13,13,13.20
2021,04,22,13,14,13.20
2021,04,22,13,15,13.20
2021,04,22,13,16,13.10
2021,04,22,13,17,13.10
2021,04,22,13,18,13.20
2021,04,22,13,19,13.30
2021,04,22,13,20,13.30
2021,04,22,13,21,13.20
2021,04,22,13,22,13.20
2021,04,22,13,23,13.20
2021,04,22,13,24,13.20
2021,04,22,13,25,13.30
2021,04,22,13,26,13.30
2021,04,22,13,27,13.30
2021,04,22,13,28,13.30
2021,04,22,13,29,13.30
2021,04,22,13,30,13.30
2021,04,22,13,31,13.30
2021,04,22,13,32,13.30
2021,04,22,13,33,13.30
2021,04,22,13,34,13.40
2021,04,22,13,35,13.40
2021,04,22,13,36,13.50
2021,04,22,13,37,13.50
2021,04,22,13,38,13.50
2021,04,22,13,39,13.50
2021,04,22,13,40,13.60
2021,04,22,13,41,13.60
2021,04,22,13,42,13.60
2021,04,22,13,43,13.70
2021,04,22,13,44,13.70
2021,04,22,13,45,13.70
2021,04,22,13,46,13.60
2021,04,22,13,47,13.60
2021,04,22,13,48,13.50
2021,04,22,13,49,13.50
2021,04,22,13,50,13.50
2021,04,22,13,51,13.50
2021,04,22,13,52,13.50
2021,04,22,13,53,13.50
2021,04,22,13,54,13.40
2021,04,22,13,55,13.30
2021,04,22,13,56,13.30
2021,04,22,13,57,13.30
2021,04,22,13,58,13.30
2021,04,22,13,59,13.30
2021,04,22,14,00,13.30
2021,04,22,14,01,13.20
2021,04,22,14,02,13.20
2021,04,22,14,03,13.30
2021,04,22,14,04,13.40
2021,04,22,14,05,13.50
2021,04,22,14,06,13.60
2021,04,22,14,07,13.70
2021,04,22,14,08,13.70
2021,04,22,14,09,13.60
2021,04,22,14,10,13.60
2021,04,22,14,11,13.70
2021,04,22,14,12,13.70
2021,04,22,14,13,13.70
2021,04,22,14,14,13.60
2021,04,22,14,15,13.50
2021,04,22,14,16,13.40
2021,04,22,14,17,13.30
2021,04,22,14,18,13.30
2021,04,22,14,19,13.30
2021,04,22,14,20,13.40
2021,04,22,14,21,13.40
2021,04,22,14,22,13.40
2021,04,22,14,23,13.40
2021,04,22,14,24,13.40
2021,04,22,14,25,13.40
2021,04,22,14,26,13.40
2021,04,22,14,27,13.50
2021,04,22,14,28,13.50
2021,04,22,14,29,13.50
2021,04,22,14,30,13.50
2021,04,22,14,31,13.60
2021,04,22,14,32,13.60
2021,04,22,14,33,13.60
2021,04,22,14,34,13.60
2021,04,22,14,35,13.60
2021,04,22,14,36,13.60
2021,04,22,14,37,13.70
2021,04,22,14,38,13.70
2021,04,22,14,39,13.70
2021,04,22,14,40,13.80
2021,04,22,14,41,13.80
2021,04,22,14,42,13.80
2021,04,22,14,43,13.70
2021,04,22,14,44,13.70
2021,04,22,14,45,13.60
2021,04,22,14,46,13.50
2021,04,22,14,47,13.50
2021,04,22,14,48,13.40
2021,04,22,14,49,13.40
2021,04,22,14,50,13.30
2021,04,22,14,51,13.20
2021,04,22,14,52,13.20
2021,04,22,14,53,13.20
2021,04,22,14,54,13.20
2021,04,22,14,55,13.20
2021,04,22,14,56,13.30
2021,04,22,14,57,13.30
2021,04,22,14,58,13.30
2021,04,22,14,59,13.30
2021,04,22,15,00,13.30
2021,04,22,15,01,13.30
2021,04,22,15,02,13.30
2021,04,22,15,03,13.30
2021,04,22,15,04,13.40
2021,04,22,15,05,13.40
2021,04,22,15,06,13.40
2021,04,22,15,07,13.40
2021,04,22,15,08,13.40
2021,04,22,15,09,13.40
2021,04,22,15,10,13.40
2021,04,22,15,11,13.30
2021,04,22,15,12,13.30
2021,04,22,15,13,13.30
2021,04,22,15,14,13.20
2021,04,22,15,15,13.20
2021,04,22,15,16,13.20
2021,04,22,15,17,13.20
2021,04,22,15,18,13.20
2021,04,22,15,19,13.20
2021,04,22,15,20,13.20
2021,04,22,15,21,13.30
2021,04,22,15,22,13.30
2021,04,22,15,23,13.30
2021,04,22,15,24,13.40
2021,04,22,15,25,13.30
2021,04,22,15,26,13.30
2021,04,22,15,27,13.30
2021,04,22,15,28,13.30
2021,04,22,15,29,13.30
2021,04,22,15,30,13.30
2021,04,22,15,31,13.40
2021,04,22,15,32,13.40
2021,04,22,15,33,13.40
2021,04,22,15,34,13.40
2021,04,22,15,35,13.40
2021,04,22,15,36,13.50
2021,04,22,15,37,13.50
2021,04,22,15,38,13.50
2021,04,22,15,39,13.50
2021,04,22,15,40,13.60
2021,04,22,15,41,13.60
2021,04,22,15,42,13.70
2021,04,22,15,43,13.70
2021,04,22,15,44,13.70
2021,04,22,15,45,13.80
2021,04,22,15,46,13.70
2021,04,22,15,47,13.70
2021,04,22,15,48,13.80
2021,04,22,15,49,13.70
2021,04,22,15,50,13.60
2021,04,22,15,51,13.60
2021,04,22,15,52,13.50
2021,04,22,15,53,13.50
2021,04,22,15,54,13.50
2021,04,22,15,55,13.40
2021,04,22,15,56,13.50
2021,04,22,15,57,13.40
2021,04,22,15,58,13.40
2021,04,22,15,59,13.40
2021,04,22,16,00,13.40
2021,04,22,16,01,13.50
2021,04,22,16,02,13.50
2021,04,22,16,03,13.40
2021,04,22,16,04,13.40
2021,04,22,16,05,13.40
2021,04,22,16,06,13.40
2021,04,22,16,07,13.50
2021,04,22,16,08,13.50
2021,04,22,16,09,13.60
2021,04,22,16,10,13.70
2021,04,22,16,11,13.80
2021,04,22,16,12,13.80
2021,04,22,16,13,13.80
2021,04,22,16,14,13.90
2021,04,22,16,15,13.90
2021,04,22,16,16,13.90
2021,04,22,16,17,13.90
2021,04,22,16,18,13.90
2021,04,22,16,19,14.00
2021,04,22,16,20,14.00
2021,04,22,16,21,14.00
2021,04,22,16,22,13.90
2021,04,22,16,23,13.90
2021,04,22,16,24,14.00
2021,04,22,16,25,14.00
2021,04,22,16,26,14.10
2021,04,22,16,27,14.10
2021,04,22,16,28,14.10
2021,04,22,16,29,14.00
2021,04,22,16,30,14.00
2021,04,22,16,31,14.00
2021,04,22,16,32,14.00
2021,04,22,16,33,14.00
2021,04,22,16,34,14.00
2021,04,22,16,35,14.00
2021,04,22,16,36,14.10
2021,04,22,16,37,14.10
2021,04,22,16,38,14.10
2021,04,22,16,39,14.20
2021,04,22,16,40,14.20
2021,04,22,16,41,14.20
2021,04,22,16,42,14.20
2021,04,22,16,43,14.30
2021,04,22,16,44,14.20
2021,04,22,16,45,14.20
2021,04,22,16,46,14.10
2021,04,22,16,47,14.00
2021,04,22,16,48,14.00
2021,04,22,16,49,14.00
2021,04,22,16,50,14.10
2021,04,22,16,51,14.10
2021,04,22,16,52,14.20
2021,04,22,16,53,14.20
2021,04,22,16,54,14.20
2021,04,22,16,55,14.20
2021,04,22,16,56,14.20
2021,04,22,16,57,14.10
2021,04,22,16,58,14.10
2021,04,22,16,59,14.10
2021,04,22,17,00,14.00
2021,04,22,17,01,13.90
2021,04,22,17,02,13.90
2021,04,22,17,03,13.80
2021,04,22,17,04,13.80
2021,04,22,17,05,13.80
2021,04,22,17,06,13.70
2021,04,22,17,07,13.70
2021,04,22,17,08,13.70
2021,04,22,17,09,13.70
2021,04,22,17,10,13.70
2021,04,22,17,11,13.70
2021,04,22,17,12,13.70
2021,04,22,17,13,13.80
2021,04,22,17,14,13.80
2021,04,22,17,15,13.90
2021,04,22,17,16,13.90
2021,04,22,17,17,13.90
2021,04,22,17,18,13.80
2021,04,22,17,19,13.80
2021,04,22,17,20,13.80
2021,04,22,17,21,13.80
2021,04,22,17,22,13.80
2021,04,22,17,23,13.70
2021,04,22,17,24,13.70
2021,04,22,17,25,13.70
2021,04,22,17,26,13.70
2021,04,22,17,27,13.80
2021,04,22,17,28,13.80
2021,04,22,17,29,13.80
2021,04,22,17,30,13.90
2021,04,22,17,31,13.90
2021,04,22,17,32,13.90
2021,04,22,17,33,14.00
2021,04,22,17,34,14.10
2021,04,22,17,35,14.10
2021,04,22,17,36,14.10
2021,04,22,17,37,14.20
2021,04,22,17,38,14.20
2021,04,22,17,39,14.30
2021,04,22,17,40,14.40
2021,04,22,17,41,14.60
2021,04,22,17,42,14.70
2021,04,22,17,43,14.80
2021,04,22,17,44,15.00
2021,04,22,17,45,15.00
2021,04,22,17,46,15.20
2021,04,22,17,47,15.30
2021,04,22,17,48,15.30
2021,04,22,17,49,15.30
2021,04,22,17,50,15.30
2021,04,22,17,51,15.20
2021,04,22,17,52,15.20
2021,04,22,17,53,15.20
2021,04,22,17,54,15.20
2021,04,22,17,55,15.20
2021,04,22,17,56,15.20
2021,04,22,17,57,15.20
2021,04,22,17,58,15.20
2021,04,22,17,59,15.30
2021,04,22,18,00,15.40
2021,04,22,18,01,15.40
2021,04,22,18,02,15.40
2021,04,22,18,03,15.40
2021,04,22,18,04,15.40
2021,04,22,18,05,15.40
2021,04,22,18,06,15.40
2021,04,22,18,07,15.50
2021,04,22,18,08,15.50
2021,04,22,18,09,15.50
2021,04,22,18,10,15.50
2021,04,22,18,11,15.40
2021,04,22,18,12,15.40
2021,04,22,18,13,15.40
2021,04,22,18,14,15.40
2021,04,22,18,15,15.40
2021,04,22,18,16,15.40
2021,04,22,18,17,15.30
2021,04,22,18,18,15.30
2021,04,22,18,19,15.30
2021,04,22,18,20,15.30
2021,04,22,18,21,15.20
2021,04,22,18,22,15.10
2021,04,22,18,23,15.10
2021,04,22,18,24,15.00
2021,04,22,18,25,15.00
2021,04,22,18,26,15.00
2021,04,22,18,27,15.00
2021,04,22,18,28,15.00
2021,04,22,18,29,15.00
2021,04,22,18,30,15.00
2021,04,22,18,31,15.00
2021,04,22,18,32,15.00
2021,04,22,18,33,15.00
2021,04,22,18,34,15.00
2021,04,22,18,35,15.00
2021,04,22,18,36,15.00
2021,04,22,18,37,14.80
2021,04,22,18,38,14.60
2021,04,22,18,39,14.50
2021,04,22,18,40,14.40
2021,04,22,18,41,14.30
2021,04,22,18,42,14.20
2021,04,22,18,43,14.10
2021,04,22,18,44,14.00
2021,04,22,18,45,13.90
2021,04,22,18,46,13.90
2021,04,22,18,47,13.80
2021,04,22,18,48,13.80
2021,04,22,18,49,13.80
2021,04,22,18,50,13.70
2021,04,22,18,51,13.70
2021,04,22,18,52,13.70
2021,04,22,18,53,13.70
2021,04,22,18,54,13.70
2021,04,22,18,55,13.60
2021,04,22,18,56,13.60
2021,04,22,18,57,13.60
2021,04,22,18,58,13.60
2021,04,22,18,59,13.60
2021,04,22,19,00,13.70
2021,04,22,19,01,13.70
2021,04,22,19,02,13.70
2021,04,22,19,03,13.70
2021,04,22,19,04,13.70
2021,04,22,19,05,13.60
2021,04,22,19,06,13.70
2021,04,22,19,07,13.70
2021,04,22,19,08,13.70
2021,04,22,19,09,13.70
2021,04,22,19,10,13.70
2021,04,22,19,11,13.70
2021,04,22,19,12,13.70
2021,04,22,19,13,13.80
2021,04,22,19,14,13.80
2021,04,22,19,15,13.80
2021,04,22,19,16,13.80
2021,04,22,19,17,13.80
2021,04,22,19,18,13.80
2021,04,22,19,19,13.80
2021,04,22,19,20,13.90
2021,04,22,19,21,13.90
2021,04,22,19,22,14.00
2021,04,22,19,23,14.10
2021,04,22,19,24,14.10
2021,04,22,19,25,14.20
2021,04,22,19,26,14.20
2021,04,22,19,27,14.20
2021,04,22,19,28,14.30
2021,04,22,19,29,14.30
2021,04,22,19,30,14.30
2021,04,22,19,31,14.40
2021,04,22,19,32,14.40
2021,04,22,19,33,14.40
2021,04,22,19,34,14.40
2021,04,22,19,35,14.50
2021,04,22,19,36,14.50
2021,04,22,19,37,14.50
2021,04,22,19,38,14.40
2021,04,22,19,39,14.40
2021,04,22,19,40,14.40
2021,04,22,19,41,14.40
2021,04,22,19,42,14.40
2021,04,22,19,43,14.40
2021,04,22,19,44,14.40
2021,04,22,19,45,14.40
2021,04,22,19,46,14.30
2021,04,22,19,47,14.30
2021,04,22,19,48,14.30
2021,04,22,19,49,14.30
2021,04,22,19,50,14.20
2021,04,22,19,51,14.20
2021,04,22,19,52,14.20
2021,04,22,19,53,14.20
2021,04,22,19,54,14.10
2021,04,22,19,55,14.10
2021,04,22,19,56,14.10
2021,04,22,19,57,14.00
2021,04,22,19,58,14.00
2021,04,22,19,59,14.00
2021,04,22,20,00,13.90
2021,04,22,20,01,13.90
2021,04,22,20,02,13.90
2021,04,22,20,03,13.90
2021,04,22,20,04,13.90
2021,04,22,20,05,13.90
2021,04,22,20,06,13.90
2021,04,22,20,07,13.90
2021,04,22,20,08,13.90
2021,04,22,20,09,13.90
2021,04,22,20,10,13.90
2021,04,22,20,11,13.90
2021,04,22,20,12,13.90
2021,04,22,20,13,13.90
